Date Time,Air Temp,Sky Temp,Clarity,Light Level,Rain Sensor,Readings
2016-06-11 00:00:03,22.3,10.9,11.4,0.0,2.6,112
2016-06-11 00:05:03,22.3,10.8,11.5,0.0,2.3,112
2016-06-11 00:10:03,22.3,10.7,11.6,0.0,2.9,111
2016-06-11 00:15:03,22.2,10.8,11.4,0.0,4.0,111
2016-06-11 00:20:03,21.9,9.5,12.5,0.0,5.3,112
2016-06-11 00:25:03,21.6,9.3,12.3,0.0,6.2,111
2016-06-11 00:30:03,21.3,9.8,11.5,0.0,3.5,111
2016-06-11 00:35:03,21.2,10.2,11.0,0.0,2.7,112
2016-06-11 00:40:03,21.2,9.9,11.3,0.0,2.9,112
2016-06-11 00:45:03,21.1,9.6,11.5,0.0,2.6,111
2016-06-11 00:50:03,21.1,9.8,11.3,0.0,2.5,112
2016-06-11 00:55:03,21.2,10.4,10.8,0.0,2.5,112
2016-06-11 01:00:03,21.4,10.4,10.9,0.0,2.4,112
2016-06-11 01:05:13,21.5,10.5,11.0,0.0,2.3,111
2016-06-11 01:10:13,21.5,9.8,11.7,0.0,2.3,112
2016-06-11 01:15:13,21.4,8.7,12.8,0.0,2.3,112
2016-06-11 01:20:13,21.4,8.5,12.9,0.0,2.3,111
2016-06-11 01:25:13,21.5,9.0,12.4,0.0,2.3,112
2016-06-11 01:30:14,21.4,9.3,12.2,0.0,2.3,111
2016-06-11 01:35:14,21.4,9.4,12.0,0.0,2.3,112
2016-06-11 01:40:14,21.3,9.5,11.8,0.0,2.4,111
2016-06-11 01:45:14,21.3,9.8,11.5,0.0,2.5,112
2016-06-11 01:50:14,21.3,9.8,11.5,0.0,2.5,112
2016-06-11 01:55:14,21.4,9.9,11.5,0.0,2.5,111
2016-06-11 02:00:14,21.4,10.3,11.1,0.0,2.4,112
2016-06-11 02:05:14,21.5,9.3,12.2,0.0,2.3,111
2016-06-11 02:10:14,21.4,9.7,11.7,0.0,2.5,112
2016-06-11 02:15:14,21.4,10.5,10.9,0.0,2.5,111
2016-06-11 02:20:14,21.5,9.6,11.8,0.0,2.4,112
2016-06-11 02:25:14,21.4,10.2,11.1,0.0,2.5,111
2016-06-11 02:30:14,21.5,11.1,10.4,0.0,2.6,112
2016-06-11 02:35:14,21.6,9.9,11.7,0.0,2.3,111
2016-06-11 02:40:14,21.6,9.8,11.8,0.0,2.5,112
2016-06-11 02:45:14,21.6,9.4,12.2,0.0,2.4,111
2016-06-11 02:50:14,21.6,9.2,12.3,0.0,2.7,112
2016-06-11 02:55:14,21.5,9.4,12.1,0.0,2.5,111
2016-06-11 03:00:14,21.5,9.2,12.3,0.0,2.5,112
2016-06-11 03:05:14,21.5,10.0,11.5,0.0,2.4,112
2016-06-11 03:10:14,21.6,10.7,10.9,0.0,2.5,111
2016-06-11 03:15:14,21.7,10.8,10.8,0.0,2.3,111
2016-06-11 03:20:14,21.7,10.8,10.9,0.0,2.3,112
2016-06-11 03:25:14,21.7,10.8,10.9,0.1,2.3,111
2016-06-11 03:30:14,21.8,10.8,10.9,0.1,2.3,111
2016-06-11 03:35:14,21.9,10.9,11.0,0.1,2.3,111
2016-06-11 03:40:14,22.0,11.0,11.1,0.2,2.4,112
2016-06-11 03:45:14,22.1,10.8,11.3,0.4,3.0,111
2016-06-11 03:50:14,22.1,11.0,11.1,0.7,2.6,112
2016-06-11 03:55:14,22.0,10.6,11.5,1.1,2.8,112
2016-06-11 04:00:14,22.0,9.7,12.3,1.8,3.3,111
2016-06-11 04:05:14,21.9,9.1,12.9,2.8,3.1,112
2016-06-11 04:10:14,21.8,9.6,12.1,4.4,2.4,111
2016-06-11 04:15:14,21.6,10.3,11.3,6.4,2.5,112
2016-06-11 04:20:14,21.4,10.1,11.4,9.2,2.7,112
2016-06-11 04:25:14,21.0,9.8,11.1,12.8,2.5,112
2016-06-11 04:30:14,21.3,8.5,12.8,17.0,2.4,111
2016-06-11 04:35:14,21.3,8.4,12.9,20.8,2.3,111
2016-06-11 04:40:14,21.3,8.7,12.6,23.5,2.3,112
2016-06-11 04:45:14,21.3,8.6,12.7,25.4,2.3,111
2016-06-11 04:50:14,21.3,8.4,12.8,26.7,2.3,111
2016-06-11 04:55:14,21.2,8.5,12.7,27.6,2.3,111
2016-06-11 05:00:14,21.2,8.6,12.5,28.5,2.3,112
2016-06-11 05:05:14,21.1,8.6,12.5,29.2,2.3,111
2016-06-11 05:10:14,21.0,8.6,12.4,29.8,2.3,112
2016-06-11 05:15:14,21.0,8.7,12.3,30.3,2.3,111
2016-06-11 05:20:14,21.1,8.7,12.5,30.7,2.3,111
2016-06-11 05:25:14,21.1,8.8,12.4,31.0,2.8,111
2016-06-11 05:30:14,21.2,8.7,12.4,31.2,3.6,112
2016-06-11 05:35:14,21.2,9.5,11.6,31.4,3.0,112
2016-06-11 05:40:14,21.1,9.9,11.2,31.5,2.8,111
2016-06-11 05:45:14,21.1,10.1,11.0,31.6,3.0,111
2016-06-11 05:50:14,21.1,10.0,11.1,31.7,4.1,112
2016-06-11 05:55:14,21.1,9.9,11.1,31.8,8.6,112
2016-06-11 06:00:14,20.9,10.1,10.8,31.9,10.5,112
2016-06-11 06:05:02,20.8,11.2,9.6,32.0,10.3,71
2016-06-11 06:10:02,20.7,10.0,10.7,32.0,12.1,111
2016-06-11 06:15:02,20.4,9.5,10.9,32.1,8.3,112
2016-06-11 06:20:02,20.9,9.5,11.4,32.1,6.9,111
2016-06-11 06:25:02,20.6,9.0,11.7,32.2,6.1,112
2016-06-11 06:30:02,20.6,9.4,11.2,32.2,5.1,111
2016-06-11 06:35:02,20.6,8.8,11.8,32.3,4.0,112
2016-06-11 06:40:02,20.6,9.2,11.4,32.3,5.4,111
2016-06-11 06:45:02,20.6,9.7,10.9,32.3,5.2,112
2016-06-11 06:50:02,20.7,9.3,11.4,32.3,2.7,111
2016-06-11 06:55:02,20.8,9.6,11.2,32.3,2.5,111
2016-06-11 07:00:02,21.1,9.8,11.3,32.3,2.6,112
2016-06-11 07:05:02,21.5,10.7,10.7,32.3,2.4,111
2016-06-11 07:10:02,21.7,11.1,10.7,32.3,3.4,112
2016-06-11 07:15:02,21.8,11.0,10.8,32.3,2.6,111
2016-06-11 07:20:02,21.9,10.8,11.1,32.3,2.7,112
2016-06-11 07:25:02,22.0,10.8,11.2,32.3,2.7,111
2016-06-11 07:30:02,22.2,11.2,11.0,32.3,3.2,112
2016-06-11 07:35:02,22.3,11.1,11.2,32.3,4.0,111
2016-06-11 07:40:02,22.1,10.4,11.7,32.3,7.4,111
2016-06-11 07:45:02,22.1,11.1,11.0,32.4,10.7,112
2016-06-11 07:50:02,21.8,11.3,10.6,32.4,12.2,111
2016-06-11 07:55:02,22.3,10.7,11.6,32.4,10.6,112
2016-06-11 08:00:02,22.1,10.5,11.6,32.5,11.9,111
2016-06-11 08:05:02,22.0,11.1,10.9,32.5,9.2,112
2016-06-11 08:10:02,22.2,10.4,11.8,32.5,6.8,111
2016-06-11 08:15:02,22.2,10.3,11.9,32.5,10.0,112
2016-06-11 08:20:02,22.3,11.9,10.4,32.5,14.0,111
2016-06-11 08:25:02,22.4,10.2,12.2,32.5,5.6,112
2016-06-11 08:30:02,22.4,9.3,13.1,32.5,6.5,111
2016-06-11 08:35:02,22.4,9.2,13.2,32.5,6.6,112
2016-06-11 08:40:02,22.7,9.5,13.2,32.5,6.7,112
2016-06-11 08:45:02,22.9,9.3,13.6,32.5,6.7,111
2016-06-11 08:50:02,23.1,9.3,13.8,32.5,3.6,111
2016-06-11 08:55:02,23.6,10.0,13.6,32.5,3.1,112
2016-06-11 09:00:02,24.2,10.8,13.4,32.5,3.0,111
2016-06-11 09:05:02,24.6,10.2,14.5,32.5,2.9,112
2016-06-11 09:10:02,24.9,10.1,14.8,32.5,3.1,111
2016-06-11 09:15:02,25.1,10.5,14.6,32.5,2.5,112
2016-06-11 09:20:02,25.5,11.1,14.4,32.5,2.4,111
2016-06-11 09:25:02,25.7,11.6,14.1,32.5,2.4,112
2016-06-11 09:30:02,25.9,11.2,14.7,32.5,2.4,111
2016-06-11 09:35:02,26.1,11.2,14.8,32.5,2.3,111
2016-06-11 09:40:02,26.1,11.3,14.9,32.5,2.4,111
2016-06-11 09:45:02,26.3,12.1,14.2,32.5,2.3,111
2016-06-11 09:50:02,26.4,12.2,14.2,32.5,2.4,112
2016-06-11 09:55:02,26.5,12.8,13.7,32.5,3.3,111
2016-06-11 10:00:02,26.6,12.9,13.7,32.5,2.6,112
2016-06-11 10:05:02,26.5,12.9,13.6,32.5,2.4,111
2016-06-11 10:10:02,26.4,13.0,13.4,32.5,2.3,112
2016-06-11 10:15:02,26.4,13.2,13.2,32.5,2.4,111
2016-06-11 10:20:02,26.4,13.0,13.3,32.5,2.3,111
2016-06-11 10:25:02,26.5,13.0,13.5,32.5,2.5,112
2016-06-11 10:30:02,26.5,13.2,13.2,32.5,2.4,111
2016-06-11 10:35:03,26.4,13.1,13.3,32.5,3.3,111
2016-06-11 10:40:03,26.5,12.9,13.6,32.5,2.5,112
2016-06-11 10:45:03,26.6,13.3,13.3,32.5,3.2,111
2016-06-11 10:50:03,26.7,13.0,13.6,32.5,3.3,112
2016-06-11 10:55:03,26.8,13.7,13.1,32.5,3.0,111
2016-06-11 11:00:03,27.0,14.3,12.7,32.6,3.0,112
2016-06-11 11:05:03,27.2,14.1,13.1,32.6,4.1,111
2016-06-11 11:10:03,27.4,14.5,12.9,32.5,3.2,111
2016-06-11 11:15:03,27.5,14.3,13.2,32.5,6.6,112
2016-06-11 11:20:03,27.4,14.7,12.7,32.5,2.8,111
2016-06-11 11:25:03,27.5,14.9,12.5,32.5,2.9,111
2016-06-11 11:30:03,27.5,14.0,13.5,32.5,3.1,112
2016-06-11 11:35:03,27.3,14.1,13.2,32.5,2.7,111
2016-06-11 11:40:03,27.2,14.2,13.0,32.5,5.2,111
2016-06-11 11:45:03,27.2,14.1,13.1,32.5,2.4,111
2016-06-11 11:50:03,27.2,14.4,12.8,32.5,2.9,112
2016-06-11 11:55:03,27.2,14.6,12.6,32.5,3.8,111
2016-06-11 12:00:03,27.3,14.8,12.4,32.5,3.3,111
2016-06-11 12:05:03,27.3,14.5,12.7,32.5,2.9,112
2016-06-11 12:10:03,27.2,14.5,12.7,32.5,2.4,111
2016-06-11 12:15:03,27.2,13.8,13.3,32.5,3.1,111
2016-06-11 12:20:03,27.2,14.6,12.7,32.5,3.1,112
2016-06-11 12:25:03,27.2,14.8,12.4,32.6,6.5,112
2016-06-11 12:30:03,27.0,14.8,12.2,32.6,5.7,111
2016-06-11 12:35:03,27.0,15.1,11.9,32.6,3.1,111
2016-06-11 12:40:03,27.3,15.5,11.8,32.6,2.3,111
2016-06-11 12:45:03,27.7,15.3,12.5,32.6,2.6,112
2016-06-11 12:50:03,28.1,14.7,13.4,32.6,3.9,111
2016-06-11 12:55:03,28.1,15.0,13.1,32.6,3.4,112
2016-06-11 13:00:03,28.4,14.3,14.1,32.6,3.8,111
2016-06-11 13:05:03,28.7,14.5,14.1,32.6,4.1,112
2016-06-11 13:10:03,28.9,15.9,13.0,32.6,2.4,112
2016-06-11 13:15:03,29.5,15.7,13.9,32.6,2.3,111
2016-06-11 13:20:03,29.8,15.8,14.0,32.6,2.4,111
2016-06-11 13:25:03,29.8,14.0,15.9,32.6,2.3,111
2016-06-11 13:30:03,29.7,14.4,15.2,32.6,2.3,111
2016-06-11 13:35:03,29.7,15.1,14.6,32.6,2.4,111
2016-06-11 13:40:03,30.0,14.4,15.6,32.6,2.3,112
2016-06-11 13:45:03,29.9,14.1,15.8,32.6,2.3,111
2016-06-11 13:50:03,29.6,14.3,15.3,32.6,2.7,112
2016-06-11 13:55:03,29.6,13.5,16.2,32.6,3.0,111
2016-06-11 14:00:03,29.6,13.5,16.1,32.6,5.5,112
2016-06-11 14:05:03,29.2,13.9,15.2,32.6,3.8,111
2016-06-11 14:10:03,28.9,14.0,15.0,32.6,4.3,111
2016-06-11 14:15:03,29.0,15.6,13.4,32.6,3.1,112
2016-06-11 14:20:03,29.7,15.2,14.4,32.6,2.8,111
2016-06-11 14:25:03,29.7,14.9,14.8,32.6,2.3,112
2016-06-11 14:30:03,29.7,15.5,14.2,32.6,2.3,111
2016-06-11 14:35:03,29.9,15.5,14.4,32.6,2.0,112
2016-06-11 14:40:03,30.0,14.4,15.6,32.6,1.9,111
2016-06-11 14:45:03,29.6,14.4,15.2,32.6,2.3,111
2016-06-11 14:50:03,29.3,14.8,14.5,32.6,2.3,112
2016-06-11 14:55:03,29.5,15.1,14.4,32.6,2.3,111
2016-06-11 15:00:03,29.5,14.3,15.3,32.6,2.3,112
2016-06-11 15:05:03,29.4,14.4,15.0,32.6,2.3,111
2016-06-11 15:10:03,29.3,14.4,14.9,32.6,2.3,111
2016-06-11 15:15:03,29.3,14.5,14.8,32.6,2.3,112
2016-06-11 15:20:03,29.4,14.7,14.6,32.6,2.3,111
2016-06-11 15:25:03,29.3,13.7,15.6,32.6,2.3,111
2016-06-11 15:30:03,29.0,13.8,15.2,32.6,2.2,111
2016-06-11 15:35:03,28.7,13.9,14.8,32.6,2.3,112
2016-06-11 15:40:03,28.7,14.3,14.5,32.6,2.3,111
2016-06-11 15:45:03,28.8,14.2,14.6,32.6,2.3,111
2016-06-11 15:50:03,28.8,14.2,14.6,32.6,2.2,112
2016-06-11 15:55:03,28.8,13.9,14.9,32.6,2.1,111
2016-06-11 16:00:03,29.0,14.2,14.7,32.6,2.2,112
2016-06-11 16:05:03,29.3,13.7,15.6,32.6,2.3,111
2016-06-11 16:10:03,29.3,13.5,15.8,32.6,2.3,112
2016-06-11 16:15:03,29.0,14.0,15.0,32.6,2.3,111
2016-06-11 16:20:03,28.8,13.4,15.5,32.5,2.3,111
2016-06-11 16:25:03,28.4,13.5,14.9,32.5,2.3,112
2016-06-11 16:30:03,28.0,14.0,14.0,32.5,2.3,111
2016-06-11 16:35:03,27.8,13.8,14.0,32.5,2.3,111
2016-06-11 16:40:03,27.6,13.7,13.9,32.5,2.3,111
2016-06-11 16:45:03,27.5,13.8,13.8,32.6,2.3,112
2016-06-11 16:50:03,27.6,13.6,14.0,32.6,2.3,111
2016-06-11 16:55:03,27.6,13.5,14.2,32.6,2.3,111
2016-06-11 17:00:03,27.8,12.4,15.4,32.6,2.3,112
2016-06-11 17:05:03,27.8,12.3,15.5,32.6,2.3,111
2016-06-11 17:10:03,27.7,11.9,15.8,32.6,2.3,112
2016-06-11 17:15:03,27.6,12.2,15.4,32.6,2.3,111
2016-06-11 17:20:03,27.5,11.9,15.7,32.6,2.3,112
2016-06-11 17:25:03,27.3,12.2,15.1,32.5,2.3,111
2016-06-11 17:30:03,27.1,12.2,14.9,32.5,2.3,111
2016-06-11 17:35:03,26.9,12.6,14.3,32.5,2.3,111
2016-06-11 17:40:03,26.8,12.9,13.9,32.5,2.3,112
2016-06-11 17:45:03,26.6,12.8,13.7,32.5,2.3,111
2016-06-11 17:50:03,26.3,12.2,14.0,32.5,2.3,112
2016-06-11 17:55:03,25.9,12.2,13.7,32.5,2.2,111
2016-06-11 18:00:03,25.8,12.3,13.4,32.5,2.3,112
2016-06-11 18:05:03,25.7,12.0,13.7,32.5,2.3,111
2016-06-11 18:10:03,25.7,11.9,13.8,32.5,2.3,112
2016-06-11 18:15:03,25.7,10.7,15.0,32.5,2.6,111
2016-06-11 18:20:03,25.7,11.7,14.0,32.5,2.3,111
2016-06-11 18:25:03,25.6,11.4,14.2,32.5,2.4,112
2016-06-11 18:30:03,25.5,11.9,13.5,32.5,2.3,111
2016-06-11 18:35:03,25.4,11.8,13.6,32.5,2.3,111
2016-06-11 18:40:03,25.4,11.2,14.1,32.5,2.4,112
2016-06-11 18:45:03,25.2,10.6,14.7,32.5,2.3,111
2016-06-11 18:50:03,25.2,9.5,15.7,32.5,2.3,112
2016-06-11 18:55:03,25.2,8.9,16.3,32.5,2.3,112
2016-06-11 19:00:03,25.4,8.2,17.3,32.5,2.3,111
2016-06-11 19:05:03,25.1,8.2,16.9,32.5,2.3,111
2016-06-11 19:10:03,25.0,8.5,16.5,32.4,2.3,112
2016-06-11 19:15:03,24.9,8.3,16.6,32.4,2.3,111
2016-06-11 19:20:03,24.8,8.5,16.3,32.4,2.3,112
2016-06-11 19:25:03,24.7,8.8,15.9,32.4,2.3,111
2016-06-11 19:30:03,24.6,9.1,15.6,32.5,2.3,112
2016-06-11 19:35:03,24.7,9.5,15.2,32.5,2.3,112
2016-06-11 19:40:03,24.8,9.6,15.2,32.5,2.3,111
2016-06-11 19:45:03,25.0,9.2,15.8,32.5,2.3,112
2016-06-11 19:50:03,25.1,8.6,16.5,32.4,2.3,111
2016-06-11 19:55:03,25.1,8.9,16.2,32.4,2.3,112
2016-06-11 20:00:03,25.1,9.3,15.8,32.4,2.3,111
2016-06-11 20:05:03,24.9,9.4,15.5,32.4,2.3,112
2016-06-11 20:10:03,24.8,8.8,16.1,32.4,2.3,111
2016-06-11 20:15:03,24.8,6.9,17.9,32.4,2.3,112
2016-06-11 20:20:03,24.6,6.0,18.6,32.4,2.3,112
2016-06-11 20:25:03,24.5,5.3,19.2,32.4,2.3,111
2016-06-11 20:30:03,25.9,3.6,22.3,32.3,2.3,112
2016-06-11 20:35:03,28.0,2.6,25.5,32.3,2.3,111
2016-06-11 20:40:03,28.4,2.5,25.9,32.3,2.3,111
2016-06-11 20:45:03,28.5,2.2,26.3,32.2,2.3,111
2016-06-11 20:50:03,28.2,1.7,26.5,32.1,2.3,111
2016-06-11 20:55:03,27.8,1.6,26.2,32.0,2.3,111
2016-06-11 21:00:03,27.5,1.8,25.7,31.8,2.3,111
2016-06-11 21:05:03,27.2,1.1,26.1,31.5,2.3,111
2016-06-11 21:10:03,26.9,0.1,26.9,31.2,2.3,112
2016-06-11 21:15:03,26.7,-0.1,26.8,30.8,2.3,112
2016-06-11 21:20:03,26.5,0.1,26.4,30.0,2.4,111
2016-06-11 21:25:03,26.4,0.2,26.2,29.0,2.3,112
2016-06-11 21:30:03,26.2,0.3,25.9,27.7,2.3,111
2016-06-11 21:35:03,26.1,0.5,25.6,25.8,2.3,111
2016-06-11 21:40:03,25.9,0.9,25.1,23.1,2.3,111
2016-06-11 21:45:03,25.9,1.8,24.1,19.5,2.2,111
2016-06-11 21:50:03,25.8,2.5,23.3,15.4,2.2,112
2016-06-11 21:55:03,25.8,3.0,22.8,11.4,2.2,111
2016-06-11 22:00:03,25.7,4.3,21.5,7.8,2.1,112
2016-06-11 22:05:03,25.6,5.0,20.5,5.2,2.2,112
2016-06-11 22:10:03,23.8,5.4,18.4,3.4,2.3,111
2016-06-11 22:15:03,21.9,4.4,17.5,2.1,2.3,112
2016-06-11 22:20:03,21.2,4.1,17.2,1.2,2.2,112
2016-06-11 22:25:03,20.9,5.1,15.8,0.7,2.3,111
2016-06-11 22:30:03,20.8,5.9,14.9,0.5,2.3,112
2016-06-11 22:35:03,20.7,6.3,14.4,0.3,2.3,111
2016-06-11 22:40:03,20.7,6.6,14.0,0.2,2.3,111
2016-06-11 22:45:03,20.6,6.1,14.5,0.1,2.3,112
2016-06-11 22:50:03,20.6,6.0,14.6,0.1,2.4,111
2016-06-11 22:55:03,20.6,5.7,14.9,0.1,2.4,112
2016-06-11 23:00:03,20.6,5.2,15.4,0.0,2.3,112
2016-06-11 23:05:03,20.6,6.2,14.4,0.0,2.3,111
2016-06-11 23:10:03,20.6,8.2,12.4,0.0,2.3,112
2016-06-11 23:15:03,20.7,6.4,14.3,0.0,2.3,111
2016-06-11 23:20:03,20.6,4.7,15.9,0.0,2.3,112
2016-06-11 23:25:03,20.6,5.3,15.3,0.0,2.3,112
2016-06-11 23:30:03,20.6,7.2,13.4,0.0,2.3,111
2016-06-11 23:35:03,20.6,8.0,12.6,0.0,2.3,112
2016-06-11 23:40:03,20.6,8.7,12.0,0.0,2.3,111
2016-06-11 23:45:03,20.7,7.7,13.0,0.0,2.3,112
2016-06-11 23:50:03,20.7,8.2,12.4,0.0,2.3,111
2016-06-11 23:55:03,20.6,8.4,12.2,0.0,2.3,112
